Date String (YYYY-MM-DD hh:mm:ss) UTC,Instrument flags,absolute air pressure of the measurement (hPa),sample flow rate (lpm),inlet stack bypass flow (lpm),air temperature of the measurement (°C),ambient temperature measured by the external sensor (°C),aerosol sample conditioner tube jacket temperature (°C),OPC LED temperature (°C),internal box temperature (°C),relative humidity of the measurement (%),span deviation,mass concentration of particles derived from Lorenz-Mie calculation of OPC scattering (μg/m³),mass concentration of particles derived from Lorenz-Mie calculation of OPC scattering (μg/m³),mass concentration of particles derived from Lorenz-Mie calculation of OPC scattering (μg/m³)
DateTimeUTC,F1_M11,P_M11,Q1_M11,Q2_M11,T1_M11,T2_M11,T3_M11,T4_M11,T5_M11,U1_M11,ZSPAN_M11,X2_M11,X0_M11,X1_M11
2023-08-02 21:00:00,SystemResetWarning,0834.7,4.99,000.00,030.1,027.0,000.0,038.3,030.9,32.6,0000.0,0003.83,0008.19,0003.42
2023-08-02 21:01:00,SystemResetWarning,0834.7,5.00,000.00,030.1,027.3,000.0,038.3,031.0,32.7,0000.0,0003.82,0008.13,0003.43
2023-08-02 21:02:00,SystemResetWarning,0834.7,5.01,000.00,030.2,027.6,000.0,038.3,031.1,32.5,0000.0,0003.83,0008.42,0003.43
2023-08-02 21:03:00,SystemResetWarning,0834.7,4.99,000.00,030.2,027.9,000.0,038.4,031.2,32.4,0000.0,0003.84,0008.55,0003.42
2023-08-02 21:04:00,SystemResetWarning,0834.7,4.99,000.00,030.2,027.1,000.0,038.3,031.1,32.3,0000.0,0003.82,0008.26,0003.41
2023-08-02 21:05:00,SystemResetWarning,0834.6,5.01,000.00,030.1,025.7,000.0,038.1,030.9,32.9,0000.0,0003.82,0008.52,0003.41
2023-08-02 21:06:00,SystemResetWarning,0835.0,4.99,000.00,030.0,025.3,000.0,038.1,030.7,32.7,0000.0,0003.81,0008.53,0003.41
2023-08-02 21:07:00,SystemResetWarning,0835.1,5.01,000.00,029.9,025.4,000.0,038.1,030.6,32.6,0000.0,0003.79,0008.68,0003.39
2023-08-02 21:08:00,SystemResetWarning,0835.0,5.01,000.00,029.9,025.9,000.0,038.1,030.6,32.6,0000.0,0003.76,0009.52,0003.38
2023-08-02 21:09:00,SystemResetWarning,0835.1,5.00,000.00,029.8,026.3,000.0,038.1,030.7,32.2,0000.0,0003.72,0010.00,0003.36
2023-08-02 21:10:00,SystemResetWarning,0835.1,5.00,000.00,029.8,026.7,000.0,038.1,030.8,32.6,0000.0,0003.70,0009.99,0003.33
2023-08-02 21:11:00,SystemResetWarning,0834.9,5.00,000.00,029.8,027.1,000.0,038.1,030.9,32.3,0000.0,0003.69,0010.00,0003.30
2023-08-02 21:12:00,SystemResetWarning,0834.7,5.01,000.00,029.8,027.4,000.0,038.1,031.0,32.1,0000.0,0003.72,0010.10,0003.28
2023-08-02 21:13:00,SystemResetWarning,0834.6,5.00,000.00,029.9,027.7,000.0,038.2,031.1,32.5,0000.0,0003.69,0009.74,0003.26
2023-08-02 21:14:00,SystemResetWarning,0835.1,4.99,000.00,029.9,027.2,000.0,038.1,031.0,31.5,0000.0,0003.64,0009.18,0003.25
2023-08-02 21:15:00,SystemResetWarning,0834.8,4.99,000.00,029.8,025.8,000.0,038.0,030.7,31.6,0000.0,0003.60,0008.85,0003.22
2023-08-02 21:16:00,SystemResetWarning,0834.5,5.01,000.00,029.7,025.2,000.0,037.9,030.6,31.9,0000.0,0003.56,0008.50,0003.19
2023-08-02 21:17:00,SystemResetWarning,0834.5,5.01,000.00,029.6,025.4,000.0,037.9,030.5,31.5,0000.0,0003.53,0008.45,0003.16
2023-08-02 21:18:00,SystemResetWarning,0834.5,4.99,000.00,029.6,025.8,000.0,037.9,030.5,30.8,0000.0,0003.53,0008.39,0003.15
2023-08-02 21:19:00,SystemResetWarning,0834.5,5.00,000.00,029.6,026.3,000.0,037.9,030.6,31.0,0000.0,0003.53,0007.48,0003.13
2023-08-02 21:20:00,SystemResetWarning,0834.5,5.00,000.00,029.6,026.7,000.0,037.9,030.7,30.8,0000.0,0003.52,0006.74,0003.12
2023-08-02 21:21:00,SystemResetWarning,0834.8,5.00,000.00,029.6,027.1,000.0,037.9,030.8,31.1,0000.0,0003.51,0006.66,0003.11
2023-08-02 21:22:00,SystemResetWarning,0835.1,5.01,000.00,029.6,027.4,000.0,037.9,030.9,31.7,0000.0,0003.46,0006.58,0003.10
2023-08-02 21:23:00,SystemResetWarning,0835.0,5.00,000.00,029.6,027.7,000.0,037.9,031.0,32.0,0000.0,0003.41,0007.24,0003.09
2023-08-02 21:24:00,SystemResetWarning,0835.0,4.99,000.00,029.7,027.4,000.0,037.9,031.0,31.9,0000.0,0003.45,0007.40,0003.09
2023-08-02 21:25:00,SystemResetWarning,0835.1,4.99,000.00,029.6,026.0,000.0,037.8,030.7,33.3,0000.0,0003.48,0006.99,0003.09
2023-08-02 21:26:00,SystemResetWarning,0835.1,5.01,000.00,029.5,025.2,000.0,037.7,030.5,33.1,0000.0,0003.48,0006.63,0003.09
2023-08-02 21:27:00,SystemResetWarning,0835.0,5.01,000.00,029.4,025.3,000.0,037.7,030.4,31.6,0000.0,0003.48,0007.27,0003.09
2023-08-02 21:28:00,SystemResetWarning,0835.0,4.99,000.00,029.3,025.7,000.0,037.7,030.4,31.9,0000.0,0003.46,0007.19,0003.08
2023-08-02 21:29:00,SystemResetWarning,0834.9,5.00,000.00,029.3,026.2,000.0,037.7,030.5,32.0,0000.0,0003.41,0006.85,0003.06
2023-08-02 21:30:00,SystemResetWarning,0835.1,5.00,000.00,029.3,026.6,000.0,037.7,030.6,32.3,0000.0,0003.40,0006.64,0003.06
2023-08-02 21:31:00,SystemResetWarning,0835.0,4.99,000.00,029.4,027.0,000.0,037.7,030.7,32.8,0000.0,0003.40,0006.64,0003.05
2023-08-02 21:32:00,SystemResetWarning,0834.9,5.00,000.00,029.4,027.4,000.0,037.7,030.8,31.9,0000.0,0003.40,0006.60,0003.04
2023-08-02 21:33:00,SystemResetWarning,0834.7,5.00,000.00,029.4,027.7,000.0,037.8,030.9,30.8,0000.0,0003.38,0006.53,0003.04
2023-08-02 21:34:00,SystemResetWarning,0834.7,5.00,000.00,029.5,027.5,000.0,037.7,030.9,30.8,0000.0,0003.39,0006.04,0003.02
2023-08-02 21:35:00,SystemResetWarning,0834.6,4.99,000.00,029.4,026.2,000.0,037.6,030.7,31.1,0000.0,0003.37,0005.58,0002.99
2023-08-02 21:36:00,SystemResetWarning,0834.5,5.00,000.00,029.4,025.4,000.0,037.5,030.5,33.2,0000.0,0003.35,0005.50,0002.99
2023-08-02 21:37:00,SystemResetWarning,0835.1,5.01,000.00,029.3,025.4,000.0,037.5,030.4,32.7,0000.0,0003.35,0005.51,0002.98
2023-08-02 21:38:00,SystemResetWarning,0835.1,5.01,000.00,029.2,025.8,000.0,037.5,030.4,34.2,0000.0,0003.33,0005.19,0002.95
2023-08-02 21:39:00,SystemResetWarning,0835.0,5.00,000.00,029.2,026.2,000.0,037.6,030.5,33.3,0000.0,0003.30,0005.70,0002.95
2023-08-02 21:40:00,SystemResetWarning,0834.7,5.00,000.00,029.2,026.6,000.0,037.6,030.6,33.0,0000.0,0003.33,0006.10,0002.93
2023-08-02 21:41:00,SystemResetWarning,0834.8,5.00,000.00,029.3,027.0,000.0,037.6,030.7,32.8,0000.0,0003.31,0006.07,0002.91
2023-08-02 21:42:00,SystemResetWarning,0835.0,5.01,000.00,029.3,027.4,000.0,037.6,030.8,32.3,0000.0,0003.31,0006.06,0002.89
2023-08-02 21:43:00,SystemResetWarning,0835.1,5.00,000.00,029.3,027.4,000.0,037.6,030.9,32.2,0000.0,0003.27,0006.62,0002.86
2023-08-02 21:44:00,SystemResetWarning,0834.8,4.98,000.00,029.3,026.1,000.0,037.5,030.6,32.2,0000.0,0003.28,0006.95,0002.84
2023-08-02 21:45:00,SystemResetWarning,0835.0,5.01,000.00,029.2,025.2,000.0,037.4,030.4,32.6,0000.0,0003.28,0007.05,0002.83
2023-08-02 21:46:00,SystemResetWarning,0835.0,5.01,000.00,029.1,025.2,000.0,037.4,030.3,33.4,0000.0,0003.27,0007.09,0002.85
2023-08-02 21:47:00,SystemResetWarning,0834.9,5.00,000.00,029.1,025.6,000.0,037.4,030.2,33.4,0000.0,0003.24,0006.91,0002.84
2023-08-02 21:48:00,SystemResetWarning,0835.0,5.01,000.00,029.1,026.0,000.0,037.4,030.3,33.0,0000.0,0003.22,0007.01,0002.83
2023-08-02 21:49:00,SystemResetWarning,0834.7,4.99,000.00,029.1,026.5,000.0,037.4,030.5,34.1,0000.0,0003.23,0007.21,0002.84
2023-08-02 21:50:00,SystemResetWarning,0834.7,4.99,000.00,029.1,026.9,000.0,037.5,030.6,33.6,0000.0,0003.24,0006.31,0002.83
2023-08-02 21:51:00,SystemResetWarning,0834.6,5.00,000.00,029.2,027.3,000.0,037.5,030.7,31.7,0000.0,0003.21,0005.88,0002.83
2023-08-02 21:52:00,SystemResetWarning,0834.6,5.01,000.00,029.2,027.6,000.0,037.5,030.8,32.1,0000.0,0003.24,0006.11,0002.83
2023-08-02 21:53:00,SystemResetWarning,0834.9,5.00,000.00,029.2,027.0,000.0,037.4,030.7,31.6,0000.0,0003.23,0006.29,0002.82
2023-08-02 21:54:00,SystemResetWarning,0834.9,5.00,000.00,029.2,025.6,000.0,037.3,030.4,31.5,0000.0,0003.26,0005.93,0002.81
2023-08-02 21:55:00,SystemResetWarning,0834.5,5.01,000.00,029.1,025.1,000.0,037.3,030.4,31.4,0000.0,0003.24,0005.59,0002.80
2023-08-02 21:56:00,SystemResetWarning,0834.5,5.01,000.00,029.0,025.3,000.0,037.3,030.2,31.3,0000.0,0003.24,0005.49,0002.79
2023-08-02 21:57:00,SystemResetWarning,0834.5,5.00,000.00,029.0,025.7,000.0,037.3,030.2,31.3,0000.0,0003.24,0005.38,0002.79
2023-08-02 21:58:00,SystemResetWarning,0834.5,5.00,000.00,029.0,026.2,000.0,037.3,030.4,31.5,0000.0,0003.28,0005.60,0002.80
2023-08-02 21:59:00,SystemResetWarning,0834.5,5.00,000.00,029.0,026.6,000.0,037.4,030.5,32.1,0000.0,0003.32,0005.57,0002.82
